Regional Weather Roundup
Issued by NWS Northern Indiana

Home | Current Version | Previous Version | Graphics & Text | Print | Product List | Glossary On
Versions: 1 2 3 4 5 6 7 8 9 10 11 12 13 14 15 16 17 18 19 20 21 22 23 24 25 26 27 28 29 30 31 32 33 34 35 36 37 38 39 40 41 42 43 44 45 46 47 48 49 50
000
ASUS43 KIWX 252201
RWRIWX

KIWX WEATHER ROUNDUP
NATIONAL WEATHER SERVICE NORTHERN INDIANA
600 PM EDT SUN JUN 25 2017

NOTE: "FAIR" INDICATES FEW OR NO CLOUDS BELOW 12,000 FEET WITH NO
SIGNIFICANT WEATHER AND/OR OBSTRUCTIONS TO VISIBILITY.

* THESE STATIONS ARE NOT UNDER NWS QUALITY CONTROL. THEY ALSO MAY NOT
  REPORT WEATHER SUCH AS PRECIPITATION OR FOG.

INZ001>027-252300-
NORTHERN INDIANA

CITY           SKY/WX    TMP DP  RH WIND       PRES   REMARKS
GARY*          PTSUNNY   72  39  30 W15G30    30.08F
MICHIGAN CITY* PTSUNNY   72  45  37 NW7G16    30.07F
KNOX*          PTSUNNY   72  32  23 W14G20    30.08S
SOUTH BEND     MOSUNNY   70  46  42 W15G25    30.08S
GOSHEN         PTSUNNY   69  43  38 W15       30.07F
MONTICELLO*    PTSUNNY   71  43  36 W10G17    30.10F
FORT WAYNE     MOSUNNY   72  45  37 W17G23    30.08F
PERU/GRISSOM   MOSUNNY   72  47  40 W15       30.09F

$$
INZ028>050-252300-
CENTRAL INDIANA

CITY           SKY/WX    TMP DP  RH WIND       PRES   REMARKS
LAFAYETTE      PTSUNNY   71  48  43 W13       30.10F
KOKOMO*        PTSUNNY   70  47  43 W15       30.11F
MUNCIE*        PTSUNNY   73  47  39 W15       30.10F
INDIANAPOLIS   MOSUNNY   74  46  36 W20       30.11F

$$
MIZ043>046-050>051-056>058-064>065-071>073-077>080-252300-
SOUTHWEST LOWER MICHIGAN

CITY           SKY/WX    TMP DP  RH WIND       PRES   REMARKS
BATTLE CREEK   MOSUNNY   70  45  40 W18       30.05F
BENTON HARBOR  SUNNY     71  45  39 W12       30.07F
COLDWATER*     MOSUNNY   71  42  35 NW10      30.05F
HILLSDALE*     PTSUNNY   68  43  40 W15G22    30.05S
HOLLAND        SUNNY     69  48  47 W15       30.05F
GRAND RAPIDS   PTSUNNY   67  49  52 W17       30.03F
KALAMAZOO      MOSUNNY   71  40  32 W16G24    30.06F
STURGIS*       SUNNY     69  44  41 NW13      30.06S
THREE RIVERS*  FAIR      70  42  36 W16G23    30.07S

$$
OHZ001>008-015>018-024>025-252300-
NORTHWEST OHIO

CITY           SKY/WX    TMP DP  RH WIND       PRES   REMARKS
DEFIANCE       MOSUNNY   70  42  36 W8G18     30.06F
FINDLAY        PTSUNNY   72  44  36 W21       30.06S
TOLEDO EXPRESS MOSUNNY   70  43  37 W12       30.04S
TOLEDO METCALF PTSUNNY   72  44  36 W13       30.04F
LIMA           PTSUNNY   69  45  41 W15G24    30.08F

$$
AND FOR LAKE MICHIGAN COASTAL AND OPEN LAKE BUOY OBSERVATIONS

STATION/POSITION TEMP    WIND        PRES    VSBY  WAVE
                 AIR SEA DIR/SP/G                  HT/PER
                 (F)     (DEG/KT/KT) (MB)    (MI)  (FT/S)
CALUMET HARBOR    71     260/  7/ 18 1017.9
MICHIGAN CITY     66     260/  8/  9   N/A
BURNS HARBOR      69     270/ 12/ 15 1018.6F
SOUTH LAKE BUOY   63 62  260/  8/ 10 1017.8          2/ 4
4 MI NW BRIDGMAN  66 68  250/  6/ 10 1018.4F         2/ 4
MICHIGAN CITY     67 67  270/  8/ 10   N/A           2/ 4

$$
&&




USA.gov is the U.S. government's official web portal to all federal, state and local government web resources and services.